This is the latest recevied weather packets stored in our database for station/object KC3ELT-10. If no packets are shown the sender has not sent any weather packets the latest 1 day(s).
| Time | Temp. | Humidity | Pressure | Rain* | Wind** | Luminosity | Snow |
|---|---|---|---|---|---|---|---|
| 1778031779 | 20.56° C | 52% | 1003.2 hPa | 0 mm | 2.24 m/s, 220° | - | - |
| 1778031479 | 20.56° C | 52% | 1003.2 hPa | 0 mm | 4.02 m/s, 150° | - | - |
| 1778031179 | 21.11° C | 51% | 1003.2 hPa | 0 mm | 2.24 m/s, 193° | - | - |
| 1778030879 | 21.11° C | 51% | 1003 hPa | 0 mm | 0.89 m/s, 159° | - | - |
| 1778030579 | 21.11° C | 50% | 1003 hPa | 0 mm | 3.13 m/s, 196° | - | - |
| 1778030279 | 21.11° C | 50% | 1003 hPa | 0 mm | 1.79 m/s, 162° | - | - |
| 1778029979 | 21.11° C | 50% | 1002.9 hPa | 0 mm | 1.34 m/s, 167° | - | - |
| 1778029679 | 21.11° C | 49% | 1002.9 hPa | 0 mm | 0.89 m/s, 189° | - | - |
| 1778029379 | 21.67° C | 47% | 1002.9 hPa | 0 mm | 2.68 m/s, 143° | - | - |
| 1778029079 | 21.67° C | 46% | 1002.8 hPa | 0 mm | 2.24 m/s, 131° | - | - |
| 1778028779 | 21.67° C | 46% | 1002.8 hPa | 0 mm | 4.02 m/s, 207° | - | - |
| 1778028479 | 21.67° C | 46% | 1002.8 hPa | 0 mm | 0.45 m/s, 184° | - | - |
| 1778028179 | 22.22° C | 45% | 1002.6 hPa | 0 mm | 2.24 m/s, 191° | - | - |
| 1778027879 | 22.22° C | 46% | 1002.6 hPa | 0 mm | 1.34 m/s, 189° | - | - |
| 1778027579 | 22.22° C | 45% | 1002.6 hPa | 0 mm | 0.45 m/s, 165° | - | - |
| 1778027279 | 22.22° C | 45% | 1002.3 hPa | 0 mm | 1.79 m/s, 125° | - | - |
| 1778026979 | 22.22° C | 45% | 1002.3 hPa | 0 mm | 0.89 m/s, 96° | - | - |
| 1778026679 | 22.22° C | 45% | 1002.3 hPa | 0 mm | 1.79 m/s, 167° | - | - |
| 1778026379 | 22.22° C | 45% | 1002.6 hPa | 0 mm | 0.89 m/s, 176° | - | - |
| 1778026079 | 22.22° C | 45% | 1002.6 hPa | 0 mm | 0.89 m/s, 195° | - | - |
| 1778025779 | 22.22° C | 45% | 1002.6 hPa | 0 mm | 2.68 m/s, 198° | - | - |
| 1778025479 | 22.22° C | 44% | 1002.4 hPa | 0 mm | 0.89 m/s, 163° | - | - |
| 1778025179 | 22.78° C | 44% | 1002.4 hPa | 0 mm | 4.47 m/s, 209° | - | - |
| 1778024879 | 22.78° C | 44% | 1002.4 hPa | 0 mm | 0.89 m/s, 300° | - | - |
| 1778024579 | 22.78° C | 43% | 1002.3 hPa | 0 mm | 2.24 m/s, 280° | - | - |
* Rain latest hour (hover to see other rain measurements)
** Current wind speed in m/s (hover to see current wind gust speed)